Orbital Elements at Epoch 2459200.5 (2020-Dec-17.0) TDB
Reference: JPL 22 (heliocentric ecliptic J2000)
Element | Value | Uncertainty (1-sigma) | Units |
e | .1357385075627972 | 4.8877e-08 | |
a | 2.212625327087745 | 6.8872e-09 | au |
q | 1.912286867393209 | 1.0967e-07 | au |
i | 3.300050767301434 | 4.247e-06 | deg |
node | 320.2853675301639 | 7.4806e-05 | deg |
peri | 60.09960693936441 | 7.6018e-05 | deg |
M | 228.5935726417012 | 1.3645e-05 | deg |
tp | 2459639.307814417874 (2022-Feb-28.80781442) | 4.6373e-05 | TDB |
period | 1202.154387469223 3.29 | 5.6129e-06 1.537e-08 | d yr |
n | .2994623683550932 | 1.3982e-09 | deg/d |
Q | 2.512963786782282 | 7.822e-09 | au |
|
| | Orbit Determination Parameters
Additional Information
|